Time,TemperatureF,DewpointF,PressureIn,WindDirection,WindDirectionDegrees,WindSpeedMPH,WindSpeedGustMPH,Humidity,HourlyPrecipIn,Conditions,Clouds,dailyrainin,SoftwareType,DateUTC
2013-08-06 00:00:00,74.3,62.2,23.46,SSE,168,0.0,7.0,66,0.00,,---,0.00,VWS V14.00,2013-08-06 04:00:00,
2013-08-06 00:01:00,74.2,62.1,23.46,SSE,168,0.0,7.0,66,0.00,,---,0.00,VWS V14.00,2013-08-06 04:01:00,
2013-08-06 00:03:00,74.2,62.1,23.46,SSE,168,0.0,7.0,66,0.00,,---,0.00,VWS V14.00,2013-08-06 04:03:00,
2013-08-06 00:04:00,74.1,62.5,23.46,SSE,168,0.0,7.0,67,0.00,,---,0.00,VWS V14.00,2013-08-06 04:04:00,
2013-08-06 00:09:00,73.7,62.1,23.46,SSE,168,0.0,0.0,67,0.00,,---,0.00,VWS V14.00,2013-08-06 04:09:00,
2013-08-06 00:14:00,73.4,62.6,23.46,SSE,168,0.0,2.0,69,0.00,,---,0.00,VWS V14.00,2013-08-06 04:14:00,
2013-08-06 00:19:00,73.1,62.7,23.46,SSE,168,0.0,3.0,70,0.00,,---,0.00,VWS V14.00,2013-08-06 04:19:00,
2013-08-06 00:24:00,72.9,62.5,23.46,SSE,168,0.0,3.0,70,0.00,,---,0.00,VWS V14.00,2013-08-06 04:24:00,
2013-08-06 00:29:00,72.8,62.9,23.46,SSE,168,0.0,3.0,71,0.00,,---,0.00,VWS V14.00,2013-08-06 04:29:00,
2013-08-06 00:30:00,72.5,62.6,23.46,SSE,168,0.0,3.0,71,0.00,,---,0.00,VWS V14.00,2013-08-06 04:30:00,
2013-08-06 00:34:00,72.6,62.7,23.46,SSE,168,0.0,3.0,71,0.00,,---,0.00,VWS V14.00,2013-08-06 04:34:00,
2013-08-06 00:39:00,72.4,62.9,23.46,SSE,168,1.0,2.0,72,0.00,,---,0.00,VWS V14.00,2013-08-06 04:39:00,
2013-08-06 00:44:00,72.3,62.8,23.46,SSE,168,0.0,2.0,72,0.00,,---,0.00,VWS V14.00,2013-08-06 04:44:00,
2013-08-06 00:49:00,72.3,62.8,23.46,SSE,168,0.0,2.0,72,0.00,,---,0.00,VWS V14.00,2013-08-06 04:49:00,
2013-08-06 00:55:00,72.2,62.7,23.46,SSE,168,0.0,2.0,72,0.00,,---,0.00,VWS V14.00,2013-08-06 04:55:00,
2013-08-06 01:00:00,72.3,63.2,23.46,SSE,168,0.0,3.0,73,0.00,,---,0.00,VWS V14.00,2013-08-06 05:00:00,
2013-08-06 01:05:00,72.3,63.2,23.46,SSE,168,0.0,3.0,73,0.00,,---,0.00,VWS V14.00,2013-08-06 05:05:00,
2013-08-06 01:10:00,72.2,63.1,23.46,SSE,168,0.0,0.0,73,0.00,,---,0.00,VWS V14.00,2013-08-06 05:10:00,
2013-08-06 01:15:00,72.1,63.0,23.46,SSE,168,0.0,0.0,73,0.00,,---,0.00,VWS V14.00,2013-08-06 05:15:00,
2013-08-06 01:20:00,72.1,63.0,23.46,SSE,168,0.0,0.0,73,0.00,,---,0.00,VWS V14.00,2013-08-06 05:20:00,
2013-08-06 01:25:00,72.0,63.3,23.46,SSE,168,0.0,0.0,74,0.00,,---,0.00,VWS V14.00,2013-08-06 05:25:00,
2013-08-06 01:30:00,71.9,63.2,23.46,SSE,168,0.0,0.0,74,0.00,,---,0.00,VWS V14.00,2013-08-06 05:30:00,
2013-08-06 01:35:00,71.7,63.0,23.46,SSE,168,0.0,0.0,74,0.00,,---,0.00,VWS V14.00,2013-08-06 05:35:00,
2013-08-06 01:40:00,71.8,63.5,23.46,SSE,168,0.0,0.0,75,0.00,,---,0.00,VWS V14.00,2013-08-06 05:40:00,
2013-08-06 01:45:00,71.8,63.5,23.46,SSE,168,0.0,0.0,75,0.00,,---,0.00,VWS V14.00,2013-08-06 05:45:00,
2013-08-06 01:51:00,71.8,63.5,23.46,SSE,168,0.0,0.0,75,0.00,,---,0.00,VWS V14.00,2013-08-06 05:51:00,
2013-08-06 01:56:00,71.8,63.5,23.46,SSE,168,0.0,3.0,75,0.00,,---,0.00,VWS V14.00,2013-08-06 05:56:00,
2013-08-06 02:00:00,71.8,63.5,23.46,SSE,168,0.0,3.0,75,0.00,,---,0.00,VWS V14.00,2013-08-06 06:00:00,
2013-08-06 02:01:00,71.8,63.5,23.46,SSE,168,0.0,3.0,75,0.00,,---,0.00,VWS V14.00,2013-08-06 06:01:00,
2013-08-06 02:06:00,71.8,63.5,23.46,SSE,168,0.0,3.0,75,0.00,,---,0.00,VWS V14.00,2013-08-06 06:06:00,
2013-08-06 02:11:00,71.8,63.5,23.46,SSE,168,0.0,2.0,75,0.00,,---,0.00,VWS V14.00,2013-08-06 06:11:00,
2013-08-06 02:16:00,71.9,63.9,23.46,SSE,168,0.0,2.0,76,0.00,,---,0.00,VWS V14.00,2013-08-06 06:16:00,
2013-08-06 02:21:00,71.9,63.5,23.46,SSE,168,0.0,2.0,75,0.00,,---,0.00,VWS V14.00,2013-08-06 06:21:00,
2013-08-06 02:26:00,71.9,63.5,23.46,SSE,168,0.0,3.0,75,0.00,,---,0.00,VWS V14.00,2013-08-06 06:26:00,
2013-08-06 02:30:00,72.0,63.7,23.46,SSE,168,0.0,3.0,75,0.00,,---,0.00,VWS V14.00,2013-08-06 06:30:00,
2013-08-06 02:31:00,72.0,64.0,23.46,SSE,168,0.0,3.0,76,0.00,,---,0.00,VWS V14.00,2013-08-06 06:31:00,
2013-08-06 02:36:00,72.0,63.7,23.46,SSE,168,0.0,3.0,75,0.00,,---,0.00,VWS V14.00,2013-08-06 06:36:00,
2013-08-06 02:41:00,71.9,63.9,23.46,SSE,168,0.0,2.0,76,0.00,,---,0.00,VWS V14.00,2013-08-06 06:41:00,
2013-08-06 02:46:00,71.7,63.7,23.46,SSE,168,0.0,2.0,76,0.00,,---,0.00,VWS V14.00,2013-08-06 06:46:00,
2013-08-06 02:51:00,71.5,63.5,23.46,SSE,168,0.0,2.0,76,0.00,,---,0.00,VWS V14.00,2013-08-06 06:51:00,
2013-08-06 02:56:00,71.5,63.5,23.46,SSE,168,1.0,2.0,76,0.00,,---,0.00,VWS V14.00,2013-08-06 06:56:00,
2013-08-06 03:00:00,71.5,63.5,23.46,SSE,168,0.0,5.0,76,0.00,,---,0.00,VWS V14.00,2013-08-06 07:00:00,
2013-08-06 03:01:00,71.5,63.5,23.46,SSE,168,0.0,3.0,76,0.00,,---,0.00,VWS V14.00,2013-08-06 07:01:00,
2013-08-06 03:07:00,71.5,63.5,23.46,SSE,168,0.0,5.0,76,0.00,,---,0.00,VWS V14.00,2013-08-06 07:07:00,
2013-08-06 03:12:00,71.5,63.5,23.46,SSE,168,0.0,1.0,76,0.00,,---,0.00,VWS V14.00,2013-08-06 07:12:00,
2013-08-06 03:17:00,71.5,63.9,23.46,SSE,168,1.0,4.0,77,0.00,,---,0.00,VWS V14.00,2013-08-06 07:17:00,
2013-08-06 03:22:00,71.5,63.9,23.46,SSE,168,0.0,4.0,77,0.00,,---,0.00,VWS V14.00,2013-08-06 07:22:00,
2013-08-06 03:27:00,71.5,63.9,23.46,SSE,168,0.0,4.0,77,0.00,,---,0.00,VWS V14.00,2013-08-06 07:27:00,
2013-08-06 03:30:00,71.4,63.8,23.46,SSE,168,0.0,4.0,77,0.00,,---,0.00,VWS V14.00,2013-08-06 07:30:00,
2013-08-06 03:32:00,71.5,63.9,23.46,SSE,168,0.0,4.0,77,0.00,,---,0.00,VWS V14.00,2013-08-06 07:32:00,
2013-08-06 03:37:00,71.3,63.7,23.46,SSE,168,0.0,0.0,77,0.00,,---,0.00,VWS V14.00,2013-08-06 07:37:00,
2013-08-06 03:42:00,71.3,63.7,23.46,SSE,168,0.0,0.0,77,0.00,,---,0.00,VWS V14.00,2013-08-06 07:42:00,
2013-08-06 03:47:00,71.3,64.1,23.46,SSE,168,1.0,4.0,78,0.00,,---,0.00,VWS V14.00,2013-08-06 07:47:00,
2013-08-06 03:52:00,71.3,64.1,23.46,SSE,168,0.0,4.0,78,0.00,,---,0.00,VWS V14.00,2013-08-06 07:52:00,
2013-08-06 03:57:00,71.3,64.5,23.46,South,182,3.0,8.0,79,0.00,,---,0.00,VWS V14.00,2013-08-06 07:57:00,
2013-08-06 04:00:00,71.4,64.2,23.46,South,182,2.0,8.0,78,0.00,,---,0.00,VWS V14.00,2013-08-06 08:00:00,
2013-08-06 04:02:00,71.4,64.2,23.46,South,182,3.0,8.0,78,0.00,,---,0.00,VWS V14.00,2013-08-06 08:02:00,
2013-08-06 04:07:00,71.4,64.2,23.46,South,184,0.0,4.0,78,0.00,,---,0.00,VWS V14.00,2013-08-06 08:07:00,
2013-08-06 04:12:00,71.4,64.2,23.46,South,184,0.0,4.0,78,0.00,,---,0.00,VWS V14.00,2013-08-06 08:12:00,
2013-08-06 04:17:00,71.4,64.2,23.46,South,184,4.0,5.0,78,0.00,,---,0.00,VWS V14.00,2013-08-06 08:17:00,
2013-08-06 04:23:00,71.3,64.1,23.46,South,184,0.0,5.0,78,0.00,,---,0.00,VWS V14.00,2013-08-06 08:23:00,
2013-08-06 04:28:00,71.4,64.2,23.46,South,182,3.0,6.0,78,0.00,,---,0.00,VWS V14.00,2013-08-06 08:28:00,
2013-08-06 04:30:00,71.3,64.1,23.46,South,182,0.0,6.0,78,0.00,,---,0.00,VWS V14.00,2013-08-06 08:30:00,
2013-08-06 04:33:00,71.3,64.1,23.46,South,182,0.0,6.0,78,0.00,,---,0.00,VWS V14.00,2013-08-06 08:33:00,
2013-08-06 04:38:00,71.3,64.1,23.46,South,182,0.0,0.0,78,0.00,,---,0.00,VWS V14.00,2013-08-06 08:38:00,
2013-08-06 04:43:00,71.3,64.1,23.46,South,182,0.0,2.0,78,0.00,,---,0.00,VWS V14.00,2013-08-06 08:43:00,
2013-08-06 04:48:00,71.2,64.0,23.46,South,182,0.0,2.0,78,0.00,,---,0.00,VWS V14.00,2013-08-06 08:48:00,
2013-08-06 04:53:00,71.2,64.4,23.46,South,182,2.0,2.0,79,0.00,,---,0.00,VWS V14.00,2013-08-06 08:53:00,
2013-08-06 04:58:00,71.1,64.3,23.46,South,182,0.0,2.0,79,0.00,,---,0.00,VWS V14.00,2013-08-06 08:58:00,
2013-08-06 05:00:00,70.9,64.1,23.46,South,182,0.0,2.0,79,0.00,,---,0.00,VWS V14.00,2013-08-06 09:00:00,
2013-08-06 05:03:00,71.0,64.2,23.46,South,182,0.0,2.0,79,0.00,,---,0.00,VWS V14.00,2013-08-06 09:03:00,
2013-08-06 05:08:00,70.8,64.0,23.46,South,182,0.0,1.0,79,0.00,,---,0.00,VWS V14.00,2013-08-06 09:08:00,
2013-08-06 05:13:00,70.8,64.0,23.46,South,182,0.0,1.0,79,0.00,,---,0.00,VWS V14.00,2013-08-06 09:13:00,
2013-08-06 05:18:00,70.6,64.1,27.57,South,182,0.0,2.0,80,0.00,,---,0.00,VWS V14.00,2013-08-06 09:18:00,
2013-08-06 05:23:00,70.5,64.4,27.57,South,182,4.0,4.0,81,0.00,,---,0.00,VWS V14.00,2013-08-06 09:23:00,
2013-08-06 05:28:00,70.6,64.5,27.57,South,182,1.0,4.0,81,0.00,,---,0.00,VWS V14.00,2013-08-06 09:28:00,
2013-08-06 05:30:00,71.0,64.9,27.57,SSE,157,0.0,6.0,81,0.00,,---,0.00,VWS V14.00,2013-08-06 09:30:00,
2013-08-06 05:33:00,70.8,64.7,27.57,SSE,162,4.0,6.0,81,0.00,,---,0.00,VWS V14.00,2013-08-06 09:33:00,
2013-08-06 05:38:00,71.1,65.0,27.57,SSE,167,5.0,8.0,81,0.00,,---,0.00,VWS V14.00,2013-08-06 09:38:00,
2013-08-06 05:44:00,71.2,65.1,27.57,SSE,164,6.0,8.0,81,0.00,,---,0.00,VWS V14.00,2013-08-06 09:44:00,
2013-08-06 05:49:00,71.3,65.2,27.57,SSE,154,0.0,8.0,81,0.00,,---,0.00,VWS V14.00,2013-08-06 09:49:00,
2013-08-06 05:54:00,71.3,65.2,27.57,SE,142,5.0,8.0,81,0.00,,---,0.00,VWS V14.00,2013-08-06 09:54:00,
2013-08-06 05:59:00,71.1,64.6,27.57,SE,135,3.0,8.0,80,0.00,,---,0.00,VWS V14.00,2013-08-06 09:59:00,
2013-08-06 06:00:00,71.0,64.5,27.57,SE,135,3.0,8.0,80,0.00,,---,0.00,VWS V14.00,2013-08-06 10:00:00,
2013-08-06 06:04:00,71.0,64.5,27.57,SE,134,2.0,8.0,80,0.00,,---,0.00,VWS V14.00,2013-08-06 10:04:00,
2013-08-06 06:09:00,71.0,64.5,27.57,SE,135,3.0,4.0,80,0.00,,---,0.00,VWS V14.00,2013-08-06 10:09:00,
2013-08-06 06:14:00,71.1,65.0,27.57,SE,134,0.0,4.0,81,0.00,,---,0.00,VWS V14.00,2013-08-06 10:14:00,
2013-08-06 06:19:00,71.0,64.5,27.57,SE,135,0.0,4.0,80,0.00,,---,0.00,VWS V14.00,2013-08-06 10:19:00,
2013-08-06 06:24:00,70.8,64.3,27.57,SE,135,2.0,4.0,80,0.00,,---,0.00,VWS V14.00,2013-08-06 10:24:00,
2013-08-06 06:29:00,70.7,64.2,27.57,SE,135,0.0,4.0,80,0.00,,---,0.00,VWS V14.00,2013-08-06 10:29:00,
2013-08-06 06:30:00,70.6,64.5,27.57,SE,134,0.0,4.0,81,0.00,,---,0.00,VWS V14.00,2013-08-06 10:30:00,
2013-08-06 06:34:00,70.6,64.5,27.57,SE,134,0.0,4.0,81,0.00,,---,0.00,VWS V14.00,2013-08-06 10:34:00,
2013-08-06 06:39:00,70.6,64.5,27.57,SE,135,2.0,3.0,81,0.00,,---,0.00,VWS V14.00,2013-08-06 10:39:00,
2013-08-06 06:44:00,70.6,64.5,27.57,SE,137,3.0,4.0,81,0.00,,---,0.00,VWS V14.00,2013-08-06 10:44:00,
2013-08-06 06:49:00,70.7,64.9,27.57,SE,137,0.0,4.0,82,0.00,,---,0.00,VWS V14.00,2013-08-06 10:49:00,
2013-08-06 06:55:00,71.0,64.9,27.57,SSE,159,4.0,8.0,81,0.00,,---,0.00,VWS V14.00,2013-08-06 10:55:00,
2013-08-06 07:00:00,71.2,65.1,27.57,SE,134,5.0,9.0,81,0.00,,---,0.00,VWS V14.00,2013-08-06 11:00:00,
2013-08-06 07:05:00,71.2,65.1,27.57,SE,138,3.0,9.0,81,0.00,,---,0.00,VWS V14.00,2013-08-06 11:05:00,
2013-08-06 07:10:00,71.1,65.0,27.57,ESE,123,3.0,5.0,81,0.00,,---,0.00,VWS V14.00,2013-08-06 11:10:00,
2013-08-06 07:15:00,71.0,64.9,27.57,SE,125,2.0,6.0,81,0.00,,---,0.00,VWS V14.00,2013-08-06 11:15:00,
2013-08-06 07:20:00,71.0,64.9,27.57,SE,128,0.0,6.0,81,0.00,,---,0.00,VWS V14.00,2013-08-06 11:20:00,
2013-08-06 07:25:00,71.0,64.9,27.57,SE,126,0.0,6.0,81,0.00,,---,0.00,VWS V14.00,2013-08-06 11:25:00,
2013-08-06 07:30:00,70.9,64.8,27.57,ESE,123,0.0,6.0,81,0.00,,---,0.00,VWS V14.00,2013-08-06 11:30:00,
2013-08-06 07:35:00,70.9,64.8,27.57,SE,125,3.0,6.0,81,0.00,,---,0.00,VWS V14.00,2013-08-06 11:35:00,
2013-08-06 07:40:00,71.0,64.9,27.57,SE,126,0.0,4.0,81,0.00,,---,0.00,VWS V14.00,2013-08-06 11:40:00,
2013-08-06 07:45:00,71.0,64.9,27.57,SE,126,0.0,5.0,81,0.00,,---,0.00,VWS V14.00,2013-08-06 11:45:00,
2013-08-06 07:50:00,71.0,64.9,27.57,SE,124,3.0,5.0,81,0.00,,---,0.00,VWS V14.00,2013-08-06 11:50:00,
2013-08-06 07:55:00,71.0,64.9,27.57,East,101,0.0,5.0,81,0.00,,---,0.00,VWS V14.00,2013-08-06 11:55:00,
2013-08-06 08:00:00,71.0,64.9,27.57,ESE,105,2.0,5.0,81,0.00,,---,0.00,VWS V14.00,2013-08-06 12:00:00,
2013-08-06 08:05:00,71.0,65.2,27.57,East,101,4.0,6.0,82,0.00,,---,0.00,VWS V14.00,2013-08-06 12:05:00,
2013-08-06 08:11:00,70.8,64.7,27.57,East,98,2.0,5.0,81,0.00,,---,0.00,VWS V14.00,2013-08-06 12:11:00,
2013-08-06 08:16:00,70.7,64.9,27.57,ESE,105,3.0,5.0,82,0.00,,---,0.00,VWS V14.00,2013-08-06 12:16:00,
2013-08-06 08:21:00,70.7,64.9,27.57,ESE,106,3.0,5.0,82,0.00,,---,0.00,VWS V14.00,2013-08-06 12:21:00,
2013-08-06 08:26:00,70.7,64.9,27.57,ESE,118,2.0,5.0,82,0.00,,---,0.00,VWS V14.00,2013-08-06 12:26:00,
2013-08-06 08:30:00,70.9,65.1,27.57,SSE,163,2.0,6.0,82,0.00,,---,0.00,VWS V14.00,2013-08-06 12:30:00,
2013-08-06 08:31:00,70.8,65.0,27.57,ESE,118,4.0,5.0,82,0.00,,---,0.00,VWS V14.00,2013-08-06 12:31:00,
2013-08-06 08:36:00,70.9,65.1,27.57,SSE,163,5.0,6.0,82,0.00,,---,0.00,VWS V14.00,2013-08-06 12:36:00,
2013-08-06 08:41:00,71.0,65.2,27.57,SSE,163,5.0,5.0,82,0.00,,---,0.00,VWS V14.00,2013-08-06 12:41:00,
2013-08-06 08:46:00,71.0,64.9,27.57,SE,143,1.0,6.0,81,0.00,,---,0.00,VWS V14.00,2013-08-06 12:46:00,
2013-08-06 08:51:00,71.0,65.2,27.57,SE,134,0.0,6.0,82,0.00,,---,0.00,VWS V14.00,2013-08-06 12:51:00,
2013-08-06 08:56:00,71.3,65.5,27.57,SE,134,2.0,6.0,82,0.00,,---,0.00,VWS V14.00,2013-08-06 12:56:00,
2013-08-06 09:00:00,71.3,65.5,27.57,SE,132,4.0,6.0,82,0.00,,---,0.00,VWS V14.00,2013-08-06 13:00:00,
2013-08-06 09:01:00,71.3,65.5,27.57,ESE,122,3.0,6.0,82,0.00,,---,0.00,VWS V14.00,2013-08-06 13:01:00,
2013-08-06 09:06:00,71.3,65.5,27.57,ESE,123,4.0,6.0,82,0.00,,---,0.00,VWS V14.00,2013-08-06 13:06:00,
2013-08-06 09:11:00,71.4,65.6,27.57,SE,132,3.0,4.0,82,0.00,,---,0.00,VWS V14.00,2013-08-06 13:11:00,
2013-08-06 09:16:00,71.4,65.3,27.57,SE,132,4.0,6.0,81,0.00,,---,0.00,VWS V14.00,2013-08-06 13:16:00,
2013-08-06 09:21:00,71.5,65.4,27.57,SE,134,2.0,6.0,81,0.00,,---,0.00,VWS V14.00,2013-08-06 13:21:00,
2013-08-06 09:26:00,71.6,65.5,27.57,SE,138,0.0,6.0,81,0.00,,---,0.00,VWS V14.00,2013-08-06 13:26:00,
2013-08-06 09:30:00,71.9,65.8,27.57,SE,144,4.0,6.0,81,0.00,,---,0.00,VWS V14.00,2013-08-06 13:30:00,
2013-08-06 09:31:00,71.8,65.7,27.57,SE,144,5.0,6.0,81,0.00,,---,0.00,VWS V14.00,2013-08-06 13:31:00,
2013-08-06 09:37:00,71.9,65.4,27.57,SE,144,3.0,6.0,80,0.00,,---,0.00,VWS V14.00,2013-08-06 13:37:00,
2013-08-06 09:42:00,72.0,65.9,27.57,SE,144,3.0,5.0,81,0.00,,---,0.00,VWS V14.00,2013-08-06 13:42:00,
2013-08-06 09:47:00,72.1,65.6,27.57,SE,146,3.0,5.0,80,0.00,,---,0.00,VWS V14.00,2013-08-06 13:47:00,
2013-08-06 09:52:00,72.3,65.8,27.57,SSE,158,3.0,5.0,80,0.00,,---,0.00,VWS V14.00,2013-08-06 13:52:00,
2013-08-06 09:57:00,72.4,65.9,27.57,SSE,161,4.0,6.0,80,0.00,,---,0.00,VWS V14.00,2013-08-06 13:57:00,
2013-08-06 10:00:00,72.6,66.1,27.57,SSE,163,5.0,11.0,80,0.00,,---,0.00,VWS V14.00,2013-08-06 14:00:00,
2013-08-06 10:02:00,72.5,66.0,27.57,SSE,161,8.0,10.0,80,0.00,,---,0.00,VWS V14.00,2013-08-06 14:02:00,
2013-08-06 10:07:00,72.6,66.1,27.57,SSE,163,5.0,11.0,80,0.00,,---,0.00,VWS V14.00,2013-08-06 14:07:00,
2013-08-06 10:12:00,72.6,66.1,27.57,South,173,5.0,11.0,80,0.00,,---,0.00,VWS V14.00,2013-08-06 14:12:00,
2013-08-06 10:17:00,72.7,66.2,27.57,SSE,152,6.0,11.0,80,0.00,,---,0.00,VWS V14.00,2013-08-06 14:17:00,
2013-08-06 10:22:00,72.8,66.3,27.57,South,178,8.0,11.0,80,0.00,,---,0.00,VWS V14.00,2013-08-06 14:22:00,
2013-08-06 10:27:00,72.9,66.7,27.57,South,170,6.0,11.0,81,0.00,,---,0.00,VWS V14.00,2013-08-06 14:27:00,
2013-08-06 10:30:00,73.0,66.5,27.57,SSE,166,5.0,11.0,80,0.00,,---,0.00,VWS V14.00,2013-08-06 14:30:00,
2013-08-06 10:32:00,73.0,66.5,27.57,SSE,165,6.0,11.0,80,0.00,,---,0.00,VWS V14.00,2013-08-06 14:32:00,
2013-08-06 10:37:00,73.1,66.9,27.57,South,169,6.0,7.0,81,0.00,,---,0.00,VWS V14.00,2013-08-06 14:37:00,
2013-08-06 10:42:00,73.1,66.6,27.57,SW,218,9.0,11.0,80,0.00,,---,0.00,VWS V14.00,2013-08-06 14:42:00,
2013-08-06 10:47:00,73.0,66.5,27.57,South,178,4.0,11.0,80,0.00,,---,0.00,VWS V14.00,2013-08-06 14:47:00,
2013-08-06 10:53:00,73.1,66.6,27.57,SSE,158,6.0,11.0,80,0.00,,---,0.00,VWS V14.00,2013-08-06 14:53:00,
2013-08-06 10:58:00,73.3,66.8,27.57,SSE,155,9.0,11.0,80,0.00,,---,0.00,VWS V14.00,2013-08-06 14:58:00,
2013-08-06 11:00:00,73.5,67.0,27.57,SSE,157,7.0,11.0,80,0.00,,---,0.00,VWS V14.00,2013-08-06 15:00:00,
2013-08-06 11:03:00,73.4,66.9,27.57,SSE,164,5.0,11.0,80,0.00,,---,0.00,VWS V14.00,2013-08-06 15:03:00,
2013-08-06 11:08:00,73.5,66.6,27.57,SE,141,13.0,13.0,79,0.00,,---,0.00,VWS V14.00,2013-08-06 15:08:00,
2013-08-06 11:13:00,73.6,66.7,27.57,SSE,161,6.0,13.0,79,0.00,,---,0.00,VWS V14.00,2013-08-06 15:13:00,
2013-08-06 11:18:00,73.7,66.8,27.57,South,187,6.0,13.0,79,0.00,,---,0.00,VWS V14.00,2013-08-06 15:18:00,
2013-08-06 11:23:00,73.8,67.2,27.57,SSE,157,10.0,13.0,80,0.00,,---,0.00,VWS V14.00,2013-08-06 15:23:00,
2013-08-06 11:25:00,73.8,66.9,27.57,SSE,161,8.0,13.0,79,0.00,,---,0.00,VWS V14.00,2013-08-06 15:25:00,
2013-08-06 11:30:00,73.8,66.9,27.57,South,173,11.0,13.0,79,0.00,,---,0.00,VWS V14.00,2013-08-06 15:30:00,
2013-08-06 11:36:00,74.0,67.1,27.57,South,183,5.0,13.0,79,0.00,,---,0.00,VWS V14.00,2013-08-06 15:36:00,
2013-08-06 11:41:00,74.1,67.2,27.57,South,184,11.0,11.0,79,0.00,,---,0.00,VWS V14.00,2013-08-06 15:41:00,
2013-08-06 11:46:00,74.1,67.2,27.57,SSE,163,5.0,11.0,79,0.00,,---,0.00,VWS V14.00,2013-08-06 15:46:00,
2013-08-06 11:51:00,74.3,67.4,27.57,South,172,5.0,11.0,79,0.00,,---,0.00,VWS V14.00,2013-08-06 15:51:00,
2013-08-06 11:56:00,74.5,67.6,27.57,SSE,157,4.0,11.0,79,0.00,,---,0.00,VWS V14.00,2013-08-06 15:56:00,
2013-08-06 12:00:00,74.6,67.7,27.57,ESE,121,5.0,12.0,79,0.00,,---,0.00,VWS V14.00,2013-08-06 16:00:00,
2013-08-06 12:01:00,74.6,67.7,27.57,SSE,160,5.0,12.0,79,0.00,,---,0.00,VWS V14.00,2013-08-06 16:01:00,
2013-08-06 12:06:00,74.6,67.7,27.57,ESE,121,4.0,12.0,79,0.00,,---,0.00,VWS V14.00,2013-08-06 16:06:00,
2013-08-06 12:11:00,74.8,67.9,27.57,SE,146,3.0,5.0,79,0.00,,---,0.00,VWS V14.00,2013-08-06 16:11:00,
2013-08-06 12:16:00,75.0,68.1,27.57,SSE,147,2.0,6.0,79,0.00,,---,0.00,VWS V14.00,2013-08-06 16:16:00,
2013-08-06 12:21:00,75.3,68.0,27.57,SSE,149,1.0,6.0,78,0.00,,---,0.00,VWS V14.00,2013-08-06 16:21:00,
2013-08-06 12:26:00,75.4,68.4,27.57,SSE,149,2.0,6.0,79,0.00,,---,0.00,VWS V14.00,2013-08-06 16:26:00,
2013-08-06 12:30:00,75.4,68.4,27.57,SSE,153,5.0,7.0,79,0.00,,---,0.00,VWS V14.00,2013-08-06 16:30:00,
2013-08-06 12:31:00,75.3,68.3,27.57,SSE,149,2.0,6.0,79,0.00,,---,0.00,VWS V14.00,2013-08-06 16:31:00,
2013-08-06 12:36:00,75.4,68.4,27.57,SSE,150,4.0,7.0,79,0.00,,---,0.00,VWS V14.00,2013-08-06 16:36:00,
2013-08-06 12:41:00,75.4,68.1,27.57,SSE,151,7.0,9.0,78,0.00,,---,0.00,VWS V14.00,2013-08-06 16:41:00,
2013-08-06 12:46:00,75.5,68.5,27.57,SSE,155,6.0,9.0,79,0.00,,---,0.00,VWS V14.00,2013-08-06 16:46:00,
2013-08-06 12:51:00,75.7,68.7,27.57,SSE,154,6.0,10.0,79,0.00,,---,0.00,VWS V14.00,2013-08-06 16:51:00,
2013-08-06 12:57:00,75.8,68.5,27.57,South,182,0.0,10.0,78,0.00,,---,0.00,VWS V14.00,2013-08-06 16:57:00,
2013-08-06 13:00:00,76.1,69.1,31.91,SSE,152,5.0,10.0,79,0.00,,---,0.00,VWS V14.00,2013-08-06 17:00:00,
2013-08-06 13:02:00,75.9,68.6,31.91,SSE,152,4.0,10.0,78,0.00,,---,0.00,VWS V14.00,2013-08-06 17:02:00,
2013-08-06 13:07:00,76.1,68.8,31.91,SSE,152,3.0,10.0,78,0.00,,---,0.00,VWS V14.00,2013-08-06 17:07:00,
2013-08-06 13:12:00,76.2,69.2,31.91,SE,143,5.0,9.0,79,0.00,,---,0.00,VWS V14.00,2013-08-06 17:12:00,
2013-08-06 13:17:00,76.2,69.2,31.91,SSE,162,3.0,9.0,79,0.00,,---,0.00,VWS V14.00,2013-08-06 17:17:00,
2013-08-06 13:22:00,76.3,69.3,31.91,SSE,159,5.0,13.0,79,0.00,,---,0.00,VWS V14.00,2013-08-06 17:22:00,
2013-08-06 13:27:00,76.4,69.4,31.91,South,176,8.0,13.0,79,0.00,,---,0.00,VWS V14.00,2013-08-06 17:27:00,
2013-08-06 13:28:00,76.4,69.4,31.91,South,179,9.0,13.0,79,0.00,,---,0.00,VWS V14.00,2013-08-06 17:28:00,
2013-08-06 13:30:00,76.4,69.4,31.91,SSE,163,5.0,13.0,79,0.00,,---,0.00,VWS V14.00,2013-08-06 17:30:00,
2013-08-06 13:33:00,76.4,69.4,31.91,South,175,4.0,13.0,79,0.00,,---,0.00,VWS V14.00,2013-08-06 17:33:00,
2013-08-06 13:38:00,76.4,69.4,31.91,South,174,7.0,11.0,79,0.00,,---,0.00,VWS V14.00,2013-08-06 17:38:00,
2013-08-06 13:43:00,76.4,69.4,28.19,South,171,5.0,11.0,79,0.00,,---,0.00,VWS V14.00,2013-08-06 17:43:00,
2013-08-06 13:48:00,76.5,69.9,28.19,SSE,168,5.0,11.0,80,0.00,,---,0.00,VWS V14.00,2013-08-06 17:48:00,
2013-08-06 13:53:00,76.4,69.4,28.89,South,181,6.0,11.0,79,0.00,,---,0.00,VWS V14.00,2013-08-06 17:53:00,
2013-08-06 13:58:00,76.5,69.9,28.89,SSE,155,7.0,11.0,80,0.00,,---,0.00,VWS V14.00,2013-08-06 17:58:00,
2013-08-06 14:00:00,76.7,70.1,28.89,SSE,147,6.0,11.0,80,0.00,,---,0.00,VWS V14.00,2013-08-06 18:00:00,
2013-08-06 14:03:00,76.7,69.7,28.89,SSE,161,6.0,11.0,79,0.00,,---,0.00,VWS V14.00,2013-08-06 18:03:00,
2013-08-06 14:08:00,76.8,70.2,28.89,SSE,152,9.0,10.0,80,0.00,,---,0.00,VWS V14.00,2013-08-06 18:08:00,
2013-08-06 14:13:00,76.8,70.2,28.89,SSE,156,6.0,10.0,80,0.00,,---,0.00,VWS V14.00,2013-08-06 18:13:00,
2013-08-06 14:18:00,76.8,69.8,28.89,SSE,150,7.0,10.0,79,0.00,,---,0.00,VWS V14.00,2013-08-06 18:18:00,
2013-08-06 14:23:00,76.8,69.8,28.89,SSE,155,4.0,10.0,79,0.00,,---,0.00,VWS V14.00,2013-08-06 18:23:00,
2013-08-06 14:28:00,77.0,70.4,28.89,SSE,167,6.0,10.0,80,0.00,,---,0.00,VWS V14.00,2013-08-06 18:28:00,
2013-08-06 14:30:00,77.1,70.5,28.89,SSE,155,5.0,10.0,80,0.00,,---,0.00,VWS V14.00,2013-08-06 18:30:00,
2013-08-06 14:34:00,77.0,70.4,28.89,SSE,159,2.0,10.0,80,0.00,,---,0.00,VWS V14.00,2013-08-06 18:34:00,
2013-08-06 14:39:00,77.0,70.0,28.89,SSE,157,0.0,6.0,79,0.00,,---,0.00,VWS V14.00,2013-08-06 18:39:00,
2013-08-06 14:44:00,77.1,70.1,31.24,SSE,157,0.0,6.0,79,0.00,,---,0.00,VWS V14.00,2013-08-06 18:44:00,
2013-08-06 14:49:00,77.3,70.3,31.24,SSE,157,3.0,6.0,79,0.00,,---,0.00,VWS V14.00,2013-08-06 18:49:00,
2013-08-06 14:54:00,77.3,70.3,31.24,SSE,157,0.0,6.0,79,0.00,,---,0.00,VWS V14.00,2013-08-06 18:54:00,
2013-08-06 14:59:00,77.4,70.4,31.24,SSE,153,4.0,6.0,79,0.00,,---,0.00,VWS V14.00,2013-08-06 18:59:00,
2013-08-06 15:00:00,77.5,70.5,31.24,SSE,153,2.0,6.0,79,0.00,,---,0.00,VWS V14.00,2013-08-06 19:00:00,
2013-08-06 15:04:00,77.5,70.5,31.24,SSE,152,0.0,6.0,79,0.00,,---,0.00,VWS V14.00,2013-08-06 19:04:00,
2013-08-06 15:09:00,77.6,70.6,31.24,SSE,153,3.0,4.0,79,0.00,,---,0.00,VWS V14.00,2013-08-06 19:09:00,
2013-08-06 15:14:00,77.5,70.5,31.24,SSE,153,0.0,4.0,79,0.00,,---,0.00,VWS V14.00,2013-08-06 19:14:00,
2013-08-06 15:19:00,77.5,70.5,31.24,SSE,153,0.0,6.0,79,0.00,,---,0.00,VWS V14.00,2013-08-06 19:19:00,
2013-08-06 15:24:00,77.5,70.5,31.24,SSE,154,3.0,6.0,79,0.00,,---,0.00,VWS V14.00,2013-08-06 19:24:00,
2013-08-06 15:29:00,77.5,70.8,31.24,SSE,153,0.0,6.0,80,0.00,,---,0.00,VWS V14.00,2013-08-06 19:29:00,
2013-08-06 15:30:00,77.3,71.0,31.24,SSE,160,3.0,6.0,81,0.00,,---,0.00,VWS V14.00,2013-08-06 19:30:00,
2013-08-06 15:34:00,77.4,71.1,31.24,SSE,154,3.0,6.0,81,0.00,,---,0.00,VWS V14.00,2013-08-06 19:34:00,
2013-08-06 15:39:00,77.2,70.6,31.24,South,171,4.0,5.0,80,0.00,,---,0.00,VWS V14.00,2013-08-06 19:39:00,
2013-08-06 15:44:00,77.3,70.7,31.24,South,173,5.0,6.0,80,0.00,,---,0.00,VWS V14.00,2013-08-06 19:44:00,
2013-08-06 15:50:00,77.4,70.8,31.24,South,175,4.0,6.0,80,0.00,,---,0.00,VWS V14.00,2013-08-06 19:50:00,
2013-08-06 15:55:00,77.5,70.8,31.24,South,174,3.0,4.0,80,0.00,,---,0.00,VWS V14.00,2013-08-06 19:55:00,
2013-08-06 16:00:00,77.6,70.9,31.24,SSE,166,3.0,5.0,80,0.00,,---,0.00,VWS V14.00,2013-08-06 20:00:00,
2013-08-06 16:05:00,77.8,71.1,31.24,South,171,6.0,7.0,80,0.00,,---,0.00,VWS V14.00,2013-08-06 20:05:00,
2013-08-06 16:10:00,77.9,71.2,31.24,SSE,155,7.0,9.0,80,0.00,,---,0.00,VWS V14.00,2013-08-06 20:10:00,
2013-08-06 16:15:00,77.9,71.2,31.24,SSE,148,7.0,10.0,80,0.00,,---,0.00,VWS V14.00,2013-08-06 20:15:00,
2013-08-06 16:20:00,77.9,71.2,31.24,SE,141,4.0,10.0,80,0.00,,---,0.00,VWS V14.00,2013-08-06 20:20:00,
2013-08-06 16:25:00,78.0,71.3,31.24,SE,141,4.0,10.0,80,0.00,,---,0.00,VWS V14.00,2013-08-06 20:25:00,
2013-08-06 16:30:00,78.0,71.0,31.24,SE,135,3.0,10.0,79,0.00,,---,0.00,VWS V14.00,2013-08-06 20:30:00,
2013-08-06 16:33:00,78.0,71.0,31.24,SE,126,2.0,10.0,79,0.00,,---,0.00,VWS V14.00,2013-08-06 20:33:00,
2013-08-06 16:38:00,78.1,71.1,31.24,SE,126,2.0,4.0,79,0.00,,---,0.00,VWS V14.00,2013-08-06 20:38:00,
2013-08-06 16:43:00,78.4,71.3,31.24,SE,126,1.0,4.0,79,0.00,,---,0.00,VWS V14.00,2013-08-06 20:43:00,
2013-08-06 16:48:00,78.6,71.6,31.24,SE,126,2.0,4.0,79,0.00,,---,0.00,VWS V14.00,2013-08-06 20:48:00,
2013-08-06 16:53:00,78.7,71.3,31.24,SE,126,0.0,4.0,78,0.00,,---,0.00,VWS V14.00,2013-08-06 20:53:00,
2013-08-06 16:58:00,79.1,71.3,31.24,SE,126,0.0,4.0,77,0.00,,---,0.00,VWS V14.00,2013-08-06 20:58:00,
2013-08-06 17:04:00,79.6,71.4,26.05,SE,126,0.0,4.0,76,0.00,,---,0.00,VWS V14.00,2013-08-06 21:04:00,
2013-08-06 17:09:00,80.2,71.6,26.05,SE,126,0.0,0.0,75,0.00,,---,0.00,VWS V14.00,2013-08-06 21:09:00,
2013-08-06 17:14:00,80.2,71.6,26.05,SE,126,0.0,1.0,75,0.00,,---,0.00,VWS V14.00,2013-08-06 21:14:00,
2013-08-06 17:19:00,80.1,71.5,26.05,SE,126,0.0,1.0,75,0.00,,---,0.00,VWS V14.00,2013-08-06 21:19:00,
2013-08-06 17:24:00,80.0,71.4,26.05,SE,126,0.0,1.0,75,0.00,,---,0.00,VWS V14.00,2013-08-06 21:24:00,
2013-08-06 17:29:00,80.1,71.9,26.05,SE,126,0.0,1.0,76,0.00,,---,0.00,VWS V14.00,2013-08-06 21:29:00,
2013-08-06 17:34:00,79.9,71.7,26.05,SE,126,0.0,1.0,76,0.00,,---,0.00,VWS V14.00,2013-08-06 21:34:00,
2013-08-06 17:39:00,79.6,71.4,26.05,SE,126,0.0,0.0,76,0.00,,---,0.00,VWS V14.00,2013-08-06 21:39:00,
2013-08-06 17:44:00,79.6,71.8,26.05,SE,126,0.0,1.0,77,0.00,,---,0.00,VWS V14.00,2013-08-06 21:44:00,
2013-08-06 17:49:00,79.7,71.9,26.05,SE,126,0.0,1.0,77,0.00,,---,0.00,VWS V14.00,2013-08-06 21:49:00,
2013-08-06 17:54:00,79.9,72.1,26.05,SE,126,0.0,1.0,77,0.00,,---,0.00,VWS V14.00,2013-08-06 21:54:00,
2013-08-06 17:59:00,80.3,72.1,26.05,SE,126,0.0,1.0,76,0.00,,---,0.00,VWS V14.00,2013-08-06 21:59:00,
2013-08-06 18:04:00,80.7,72.4,26.05,SE,126,0.0,1.0,76,0.00,,---,0.00,VWS V14.00,2013-08-06 22:04:00,
2013-08-06 18:09:00,80.8,72.5,26.05,SE,126,0.0,0.0,76,0.00,,---,0.00,VWS V14.00,2013-08-06 22:09:00,
2013-08-06 18:14:00,80.5,72.2,26.05,SE,126,3.0,4.0,76,0.00,,---,0.00,VWS V14.00,2013-08-06 22:14:00,
2013-08-06 18:19:00,80.1,72.2,26.05,SE,131,3.0,5.0,77,0.00,,---,0.00,VWS V14.00,2013-08-06 22:19:00,
2013-08-06 18:24:00,80.0,72.2,26.05,SE,138,4.0,6.0,77,0.00,,---,0.00,VWS V14.00,2013-08-06 22:24:00,
2013-08-06 18:30:00,79.9,72.4,26.05,SE,138,3.0,6.0,78,0.00,,---,0.00,VWS V14.00,2013-08-06 22:30:00,
2013-08-06 18:35:00,80.0,72.5,26.05,SSE,159,3.0,6.0,78,0.00,,---,0.00,VWS V14.00,2013-08-06 22:35:00,
2013-08-06 18:40:00,79.9,72.4,26.05,SSE,160,5.0,5.0,78,0.00,,---,0.00,VWS V14.00,2013-08-06 22:40:00,
2013-08-06 18:45:00,79.8,72.3,26.05,South,180,4.0,7.0,78,0.00,,---,0.00,VWS V14.00,2013-08-06 22:45:00,
2013-08-06 18:50:00,79.6,72.1,26.05,South,180,4.0,7.0,78,0.00,,---,0.00,VWS V14.00,2013-08-06 22:50:00,
2013-08-06 18:55:00,79.6,72.5,26.05,South,178,3.0,7.0,79,0.00,,---,0.00,VWS V14.00,2013-08-06 22:55:00,
2013-08-06 19:00:00,79.7,72.6,28.60,South,178,5.0,7.0,79,0.00,,---,0.00,VWS V14.00,2013-08-06 23:00:00,
2013-08-06 19:05:00,79.9,72.4,28.60,South,171,6.0,10.0,78,0.00,,---,0.00,VWS V14.00,2013-08-06 23:05:00,
2013-08-06 19:10:00,80.0,72.5,28.60,SSE,157,5.0,7.0,78,0.00,,---,0.00,VWS V14.00,2013-08-06 23:10:00,
2013-08-06 19:15:00,80.0,72.5,28.60,South,181,6.0,7.0,78,0.00,,---,0.00,VWS V14.00,2013-08-06 23:15:00,
2013-08-06 19:20:00,80.0,72.5,28.60,South,181,4.0,7.0,78,0.00,,---,0.00,VWS V14.00,2013-08-06 23:20:00,
2013-08-06 19:25:00,79.9,72.4,28.60,South,178,2.0,7.0,78,0.00,,---,0.00,VWS V14.00,2013-08-06 23:25:00,
2013-08-06 19:30:00,79.8,72.7,28.60,South,178,4.0,7.0,79,0.00,,---,0.00,VWS V14.00,2013-08-06 23:30:00,
2013-08-06 19:35:00,79.6,72.5,28.60,South,178,0.0,7.0,79,0.00,,---,0.00,VWS V14.00,2013-08-06 23:35:00,
2013-08-06 19:40:00,79.6,72.5,28.60,South,178,0.0,3.0,79,0.00,,---,0.00,VWS V14.00,2013-08-06 23:40:00,
2013-08-06 19:46:00,79.6,72.5,28.60,South,178,0.0,3.0,79,0.00,,---,0.00,VWS V14.00,2013-08-06 23:46:00,
2013-08-06 19:51:00,79.6,72.5,28.60,South,178,0.0,3.0,79,0.00,,---,0.00,VWS V14.00,2013-08-06 23:51:00,
2013-08-06 19:56:00,79.5,72.8,28.60,South,178,0.0,3.0,80,0.00,,---,0.00,VWS V14.00,2013-08-06 23:56:00,
2013-08-06 20:01:00,79.3,72.6,23.19,South,178,0.0,3.0,80,0.00,,---,0.00,VWS V14.00,2013-08-07 00:01:00,
2013-08-06 20:06:00,78.9,72.6,23.19,South,178,0.0,3.0,81,0.00,,---,0.00,VWS V14.00,2013-08-07 00:06:00,
2013-08-06 20:11:00,78.5,72.6,23.19,South,178,0.0,2.0,82,0.00,,---,0.00,VWS V14.00,2013-08-07 00:11:00,
2013-08-06 20:16:00,78.2,72.3,23.19,South,178,0.0,2.0,82,0.00,,---,0.00,VWS V14.00,2013-08-07 00:16:00,
2013-08-06 20:21:00,77.9,72.3,23.19,South,178,0.0,2.0,83,0.00,,---,0.00,VWS V14.00,2013-08-07 00:21:00,
2013-08-06 20:26:00,77.8,72.2,23.19,South,178,0.0,2.0,83,0.00,,---,0.00,VWS V14.00,2013-08-07 00:26:00,
2013-08-06 20:31:00,77.8,72.2,23.19,South,178,0.0,2.0,83,0.00,,---,0.00,VWS V14.00,2013-08-07 00:31:00,
2013-08-06 20:36:00,77.9,72.3,23.19,South,178,0.0,2.0,83,0.00,,---,0.00,VWS V14.00,2013-08-07 00:36:00,
2013-08-06 20:41:00,77.8,72.2,23.19,South,178,0.0,0.0,83,0.00,,---,0.00,VWS V14.00,2013-08-07 00:41:00,
2013-08-06 20:46:00,77.5,72.3,23.19,South,178,0.0,1.0,84,0.00,,---,0.00,VWS V14.00,2013-08-07 00:46:00,
2013-08-06 20:52:00,77.4,72.2,23.19,South,178,0.0,1.0,84,0.00,,---,0.00,VWS V14.00,2013-08-07 00:52:00,
2013-08-06 20:57:00,77.4,72.2,23.19,South,178,0.0,2.0,84,0.00,,---,0.00,VWS V14.00,2013-08-07 00:57:00,
2013-08-06 21:02:00,77.4,72.2,23.19,South,178,0.0,2.0,84,0.00,,---,0.00,VWS V14.00,2013-08-07 01:02:00,
2013-08-06 21:07:00,77.4,72.5,23.19,South,178,0.0,2.0,85,0.00,,---,0.00,VWS V14.00,2013-08-07 01:07:00,
2013-08-06 21:12:00,77.4,72.5,23.19,South,178,0.0,1.0,85,0.00,,---,0.00,VWS V14.00,2013-08-07 01:12:00,
2013-08-06 21:17:00,77.2,72.3,23.19,South,178,0.0,1.0,85,0.00,,---,0.00,VWS V14.00,2013-08-07 01:17:00,
2013-08-06 21:22:00,77.0,72.2,23.19,South,178,0.0,1.0,85,0.00,,---,0.00,VWS V14.00,2013-08-07 01:22:00,
2013-08-06 21:27:00,76.8,71.9,23.19,South,178,0.0,1.0,85,0.00,,---,0.00,VWS V14.00,2013-08-07 01:27:00,
2013-08-06 21:32:00,76.6,71.8,23.19,South,178,0.0,1.0,85,0.00,,---,0.00,VWS V14.00,2013-08-07 01:32:00,
2013-08-06 21:37:00,76.6,72.1,23.19,South,178,0.0,1.0,86,0.00,,---,0.00,VWS V14.00,2013-08-07 01:37:00,
2013-08-06 21:42:00,76.6,72.1,23.19,South,178,0.0,1.0,86,0.00,,---,0.00,VWS V14.00,2013-08-07 01:42:00,
2013-08-06 21:47:00,76.5,72.0,23.19,South,178,0.0,1.0,86,0.00,,---,0.00,VWS V14.00,2013-08-07 01:47:00,
2013-08-06 21:53:00,76.5,72.0,23.19,South,178,2.0,4.0,86,0.00,,---,0.00,VWS V14.00,2013-08-07 01:53:00,
2013-08-06 21:58:00,76.6,72.1,23.19,South,178,0.0,4.0,86,0.00,,---,0.00,VWS V14.00,2013-08-07 01:58:00,
2013-08-06 22:03:00,76.6,72.1,23.19,South,178,0.0,4.0,86,0.00,,---,0.00,VWS V14.00,2013-08-07 02:03:00,
2013-08-06 22:08:00,76.5,72.0,23.19,South,178,1.0,2.0,86,0.00,,---,0.00,VWS V14.00,2013-08-07 02:08:00,
2013-08-06 22:13:00,76.4,72.2,23.19,South,178,0.0,2.0,87,0.00,,---,0.00,VWS V14.00,2013-08-07 02:13:00,
2013-08-06 22:18:00,76.3,72.2,23.19,South,178,0.0,2.0,87,0.00,,---,0.00,VWS V14.00,2013-08-07 02:18:00,
2013-08-06 22:23:00,76.1,71.9,23.19,South,178,0.0,2.0,87,0.00,,---,0.00,VWS V14.00,2013-08-07 02:23:00,
2013-08-06 22:28:00,76.0,71.9,23.19,South,178,0.0,2.0,87,0.00,,---,0.00,VWS V14.00,2013-08-07 02:28:00,
2013-08-06 22:33:00,75.9,71.8,23.19,South,178,0.0,2.0,87,0.00,,---,0.00,VWS V14.00,2013-08-07 02:33:00,
2013-08-06 22:38:00,75.8,71.7,23.19,South,178,0.0,1.0,87,0.00,,---,0.00,VWS V14.00,2013-08-07 02:38:00,
2013-08-06 22:43:00,75.7,71.9,23.19,South,178,0.0,2.0,88,0.00,,---,0.00,VWS V14.00,2013-08-07 02:43:00,
2013-08-06 22:48:00,75.7,71.9,23.19,South,178,0.0,2.0,88,0.00,,---,0.00,VWS V14.00,2013-08-07 02:48:00,
2013-08-06 22:53:00,75.7,71.9,23.19,South,178,0.0,2.0,88,0.00,,---,0.00,VWS V14.00,2013-08-07 02:53:00,
2013-08-06 22:58:00,75.7,71.9,23.19,South,178,0.0,2.0,88,0.00,,---,0.00,VWS V14.00,2013-08-07 02:58:00,
2013-08-06 23:04:00,75.6,71.8,23.19,South,178,0.0,2.0,88,0.00,,---,0.00,VWS V14.00,2013-08-07 03:04:00,
2013-08-06 23:09:00,75.6,72.1,23.19,South,178,0.0,0.0,89,0.00,,---,0.00,VWS V14.00,2013-08-07 03:09:00,
2013-08-06 23:14:00,75.5,72.0,23.19,South,178,0.0,0.0,89,0.00,,---,0.00,VWS V14.00,2013-08-07 03:14:00,
2013-08-06 23:19:00,75.4,71.6,23.19,South,178,0.0,0.0,88,0.00,,---,0.00,VWS V14.00,2013-08-07 03:19:00,
2013-08-06 23:24:00,75.2,71.4,23.19,South,178,0.0,0.0,88,0.00,,---,0.00,VWS V14.00,2013-08-07 03:24:00,
2013-08-06 23:29:00,75.0,71.5,23.19,South,178,0.0,0.0,89,0.00,,---,0.00,VWS V14.00,2013-08-07 03:29:00,
2013-08-06 23:34:00,74.9,71.4,23.19,South,178,0.0,3.0,89,0.00,,---,0.00,VWS V14.00,2013-08-07 03:34:00,
2013-08-06 23:39:00,74.8,71.3,23.19,South,178,0.0,0.0,89,0.00,,---,0.00,VWS V14.00,2013-08-07 03:39:00,
2013-08-06 23:44:00,74.8,71.3,23.19,South,178,0.0,2.0,89,0.00,,---,0.00,VWS V14.00,2013-08-07 03:44:00,
2013-08-06 23:49:00,74.6,71.2,23.19,South,178,0.0,2.0,89,0.00,,---,0.00,VWS V14.00,2013-08-07 03:49:00,
2013-08-06 23:54:00,74.6,71.2,23.19,South,178,0.0,4.0,89,0.00,,---,0.00,VWS V14.00,2013-08-07 03:54:00,
2013-08-06 23:59:00,74.6,71.2,23.19,South,178,2.0,4.0,89,0.00,,---,0.00,VWS V14.00,2013-08-07 03:59:00,